FREGAT R/B, 44851

Orbit data source: Space-Track

FREGAT R/B, 44851 is space debris in MEO originally from a launch on Wed, 11 Dec 2019 UTC launched from the Plesetsk Missile And Space Complex (PKMTR). Debris objects in space refer to the collection of defunct objects orbiting the Earth. Examples of debris include non-operational satellites, rocket bodies, and fragments generated from explosions, collisions, or faulty payload assembly.

Loading next visibility...
Identifier
44851, 2019-088B
Orbit
MEO
Country
Flag of CISCIS
Related business
Manufacturer
Lavochkin
Mission
Spacecraft
Bus & Motor
FREGAT, Unknown motor
Mass
1,000 kg wet, 1,000 kg dry
Launch date (UTC)
2019-12-11 (7 years ago)
Launch vehicle
Unknown
Launch site
Plesetsk Missile And Space Complex (PKMTR)
Object type
Payload
Rocket body
Debris
Shape & HBR
Cyl, 1.7 m
Radar Cross Section
8.354 m², Large (>1 m²)

Expand to show TLE details & history
Last TLE update: 2 days ago

TLE from 2 days ago
0 FREGAT R/B
1 44851U 19088B   26171.17755101 -.00000033  00000-0  00000+0 0  9998
2 44851  65.5159  76.7412 0109556  96.8939 264.3852  2.09212713 49888
Epoch: 2026-06-20T04:15Z
TLE epoch observation values (Epoch: 2026-06-20T04:15:40.407Z)
Latitude
0.00007°
Longitude
104.438°
Altitude
19,476.124 km
Speed
3.924 km/s
True Right ascension
05h 07m 00s
True Declination
0° 00' 00"
Sunlit
Object was in daylight at epoch
Visualization orbit readout
Latitude
Unknown
Longitude
Unknown
Altitude
Unknown
Speed
Unknown
Apparent Right ascension
Unknown
Apparent Declination
Unknown
Sunlit
N/A
Visualization observer readout
Local Sidereal Time
21:43:18
Azimuth
Unknown
Elevation
Unknown
Doppler factor
Unknown
Orbital elements
Apogee altitude
19,727.554 km
Perigee altitude
19,161.746 km
Semi-major axis
25,822.787 km
Eccentricity
0.01096
Inclination
65.5159°
RAAN
76.7412°
Arg. of periapsis
96.8939°
True anomaly
263.13757°
Mean anomaly
264.3852°
Eccentric anomaly
263.76121°
Mean motion
0.52304 °/min
Orbital period
688.28 mins
BSTAR
0
Loading maneuver chart data...
Computing Atmospheric mass density...
Loading historical data...
Loading historical data...
Loading historical data...
Loading historical data...
Loading historical data...
Loading historical data...
Loading historical data...
Other satellites on launch #88 in the year 2019 (2019-12-11 UTC)

Documentation

Showing up to 5 results
|